EW8077 Weather Reports


time (UTC)temp
C
wind
direction
speed
KPH
gust
KPH
rain 1hr
cm
rain 24hr
cm
rain mn
cm
humidity
%
barometer
mb
20260510081518 7 0.0 1.6 0.00 0.89 0.03 91 1013.5
20260510080520 7 0.0 0.0 0.00 0.89 0.03 91 1013.3
20260510075521 8 0.0 0.0 0.00 0.89 0.03 91 1013.2
20260510074516 8 113 0.0 1.6 0.00 0.89 0.03 91 1013.0
20260510073524 8 0.0 0.0 0.00 0.89 0.03 91 1012.8
20260510072546 8 90 0.0 3.2 0.00 0.89 0.03 91 1012.8
20260510071527 8 31 1.6 3.2 0.00 0.89 0.03 91 1012.8
20260510070528 8 19 1.6 3.2 0.00 0.89 0.03 91 1012.8
20260510065530 8 7 1.6 3.2 0.00 0.89 0.03 90 1012.6
20260510064531 8 0.0 0.0 0.00 0.89 0.03 90 1012.6
20260510063548 9 18 1.6 3.2 0.00 0.89 0.03 90 1012.5
20260510062528 9 0.0 0.0 0.00 0.89 0.03 90 1012.5
20260510061529 9 33 1.6 4.8 0.03 0.89 0.03 89 1012.5
20260510060551 9 38 1.6 4.8 0.03 0.89 0.03 89 1012.5
20260510055526 10 3 3.2 4.8 0.03 0.89 0.03 88 1012.4
20260510054523 10 3 1.6 4.8 0.03 0.89 0.03 88 1011.7
20260510053518 10 31 6.4 9.7 0.03 0.89 0.03 88 1011.5
20260510052531 11 340 11.3 17.7 0.03 0.89 0.03 88 1012.1
20260510051533 12 315 6.4 11.3 0.00 0.86 0.00 88 1012.3
20260510050516 13 337 11.3 17.7 0.00 0.86 0.00 88 1011.5
20260510045517 12 266 3.2 4.8 0.00 0.86 0.00 88 1011.0
20260510044539 12 100 1.6 4.8 0.00 0.89 0.00 88 1010.6
20260510043520 12 353 3.2 4.8 0.00 0.89 0.00 87 1009.9
20260510042522 12 0.0 0.0 0.00 0.89 0.00 87 1009.9
20260510041523 13 118 3.2 4.8 0.00 0.91 0.00 87 1009.9
20260510040545 13 177 4.8 9.7 0.00 0.97 0.00 87 1009.9
20260510035526 13 222 4.8 9.7 0.00 0.97 0.97 88 1009.7
20260510034527 13 211 4.8 8.0 0.00 0.99 0.97 89 1010.1
20260510033523 12 210 4.8 8.0 0.00 0.99 0.97 90 1009.9
20260510032518 12 206 3.2 6.4 0.00 0.99 0.97 90 1009.8
20260510031531 12 198 3.2 3.2 0.00 0.99 0.97 90 1009.7
20260510030532 12 191 3.2 6.4 0.00 0.99 0.97 90 1009.7
20260510025601 13 127 4.8 8.0 0.00 0.99 0.97 91 1010.1
20260510024522 12 209 4.8 9.7 0.00 0.99 0.97 92 1010.2
20260510023539 12 183 3.2 6.4 0.00 0.99 0.97 92 1009.5
20260510022520 12 248 1.6 3.2 0.00 0.99 0.97 92 1009.6
20260510021602 12 98 1.6 3.2 0.00 0.99 0.97 92 1009.6
20260510020523 12 209 3.2 4.8 0.00 0.99 0.97 91 1009.5
20260510015519 12 248 0.0 3.2 0.00 0.99 0.97 91 1009.5
20260510014520 12 216 3.2 4.8 0.00 0.99 0.97 91 1009.7
20260510013521 12 242 3.2 4.8 0.00 0.99 0.97 91 1009.3
20260510012522 12 174 3.2 3.2 0.00 0.99 0.97 91 1009.2
20260510011518 12 198 3.2 4.8 0.00 0.99 0.97 91 1009.1
20260510010526 12 204 3.2 6.4 0.00 0.99 0.97 91 1008.9
20260510005527 12 254 3.2 6.4 0.00 0.99 0.97 90 1009.2
20260510004529 12 260 3.2 8.0 0.00 0.99 0.97 90 1009.2
20260510003530 13 229 4.8 8.0 0.00 0.99 0.97 90 1009.2
20260510002531 13 253 3.2 6.4 0.00 1.02 0.97 90 1009.1
20260510001533 13 202 4.8 8.0 0.00 1.07 0.97 90 1009.0
20260510000516 13 255 6.4 12.9 0.05 1.09 0.97 89 1008.9
20260509235518 13 220 4.8 12.9 0.10 1.09 0.97 88 1008.9
20260509234519 13 235 6.4 11.3 0.56 1.12 0.97 87 1008.8
20260509233540 12 198 4.8 9.7 0.86 1.14 0.97 86 1008.8
20260509232521 12 258 4.8 11.3 0.86 1.17 0.97 84 1008.8
20260509231523 12 231 4.8 8.0 0.86 1.19 0.97 81 1008.8
20260509230543 12 356 6.4 9.7 0.81 1.19 0.91 77 1009.3
20260509225526 12 303 9.7 16.1 0.76 1.17 0.86 70 1009.3
20260509224527 14 330 9.7 16.1 0.30 0.74 0.41 59 1008.6
20260509223548 20 327 6.4 11.3 0.00 0.43 0.10 52 1006.6
20260509222530 20 208 6.4 11.3 0.00 0.43 0.10 52 1006.6
20260509221551 20 189 11.3 17.7 0.00 0.43 0.10 52 1006.5
20260509220533 20 211 9.7 17.7 0.00 0.43 0.10 52 1006.4
20260509215516 21 178 9.7 17.7 0.00 0.43 0.10 52 1006.3
20260509214517 21 171 8.0 14.5 0.00 0.43 0.10 52 1006.0
20260509213519 21 158 11.3 17.7 0.00 0.43 0.10 52 1005.9
20260509212520 22 234 9.7 16.1 0.00 0.43 0.10 52 1006.1
20260509211602 22 205 11.3 16.1 0.00 0.43 0.10 52 1006.3
20260509210523 22 155 9.7 16.1 0.00 0.43 0.10 52 1006.4
20260509205538 22 169 9.7 17.7 0.00 0.43 0.10 52 1006.6
20260509204546 21 302 9.7 17.7 0.00 0.43 0.10 51 1006.6
20260509203547 21 260 12.9 24.1 0.00 0.43 0.10 51 1007.0
20260509202528 21 197 12.9 29.0 0.00 0.43 0.10 52 1007.1
20260509201530 22 170 12.9 19.3 0.00 0.43 0.10 52 1007.2
20260509200531 22 211 12.9 20.9 0.00 0.43 0.10 53 1007.3
20260509195533 21 233 6.4 11.3 0.00 0.43 0.10 53 1007.5
20260509194517 22 167 11.3 19.3 0.00 0.43 0.10 53 1007.5
20260509193538 21 165 11.3 24.1 0.00 0.43 0.10 54 1007.8
20260509192519 21 249 9.7 14.5 0.00 0.43 0.10 54 1008.0
20260509191601 21 212 9.7 19.3 0.00 0.43 0.10 54 1008.1
20260509190522 21 176 9.7 14.5 0.00 0.43 0.10 54 1008.2
20260509185523 20 294 9.7 19.3 0.00 0.43 0.10 54 1008.3
20260509184518 21 278 8.0 12.9 0.00 0.43 0.10 54 1008.4
20260509183526 21 237 11.3 17.7 0.00 0.43 0.10 54 1008.4
20260509182548 21 145 11.3 22.5 0.00 0.43 0.10 54 1008.2
20260509181550 21 100 8.0 12.9 0.00 0.43 0.10 55 1008.1
20260509180526 21 220 11.3 17.7 0.00 0.43 0.10 56 1008.2
20260509175526 20 186 9.7 14.5 0.00 0.43 0.10 57 1008.5
20260509174528 21 193 9.7 16.1 0.00 0.43 0.10 57 1008.5
20260509173529 21 194 8.0 14.5 0.00 0.43 0.10 59 1008.4
20260509172530 20 207 8.0 14.5 0.00 0.43 0.10 61 1008.5
20260509171532 20 159 8.0 14.5 0.00 0.43 0.10 62 1008.5
20260509170535 20 182 9.7 14.5 0.00 0.43 0.10 64 1008.6
20260509165517 19 268 8.0 11.3 0.00 0.43 0.10 66 1008.7
20260509164538 19 238 4.8 6.4 0.00 0.43 0.10 67 1008.5
20260509163539 18 122 6.4 8.0 0.00 0.43 0.10 68 1008.9
20260509162521 18 180 6.4 9.7 0.00 0.43 0.10 68 1009.0
20260509161522 19 229 6.4 11.3 0.00 0.43 0.10 71 1009.1
20260509160604 17 247 4.8 8.0 0.00 0.43 0.10 74 1009.4
20260509155525 16 283 4.8 8.0 0.00 0.43 0.10 75 1009.4
20260509154526 16 238 6.4 9.7 0.00 0.43 0.10 75 1009.4
20260509153528 16 128 6.4 11.3 0.00 0.43 0.10 76 1009.4
20260509152529 16 246 8.0 12.9 0.00 0.43 0.10 78 1009.4
20260509151531 16 213 8.0 14.5 0.00 0.43 0.10 79 1009.3
20260509150532 15 246 4.8 9.7 0.00 0.43 0.10 81 1009.3
20260509145535 16 216 6.4 12.9 0.00 0.43 0.10 83 1009.4
20260509144517 15 219 4.8 9.7 0.00 0.43 0.10 86 1009.3
20260509143538 14 113 6.4 11.3 0.00 0.43 0.10 87 1009.2
20260509142540 14 273 6.4 11.3 0.00 0.43 0.10 88 1009.3
20260509141541 14 140 4.8 6.4 0.00 0.43 0.10 89 1009.3
20260509140522 14 254 4.8 8.0 0.00 0.43 0.10 90 1009.3
20260509135604 13 219 4.8 9.7 0.00 0.43 0.10 91 1009.3
20260509134525 13 304 4.8 8.0 0.00 0.43 0.10 92 1009.4
20260509133527 13 106 4.8 11.3 0.00 0.43 0.10 93 1009.4
20260509132528 13 234 4.8 11.3 0.00 0.43 0.10 94 1009.4
20260509131550 12 146 3.2 8.0 0.00 0.43 0.10 95 1009.4
20260509130531 12 225 4.8 8.0 0.00 0.43 0.10 95 1009.5
20260509125553 12 222 3.2 6.4 0.00 0.43 0.10 96 1009.5
20260509124516 12 166 4.8 9.7 0.00 0.43 0.10 96 1009.7
20260509123517 12 224 3.2 6.4 0.00 0.46 0.10 97 1009.7
20260509122538 11 168 3.2 8.0 0.00 0.46 0.10 97 1009.7
20260509121520 11 195 1.6 4.8 0.00 0.46 0.10 97 1009.8
20260509120515 11 243 1.6 6.4 0.00 0.46 0.10 97 1009.9
20260509115522 11 223 4.8 9.7 0.00 0.46 0.10 97 1009.9
20260509114524 11 106 3.2 8.0 0.00 0.46 0.10 97 1009.7
20260509113525 11 190 3.2 6.4 0.00 0.46 0.10 97 1009.7
20260509112526 11 192 3.2 4.8 0.00 0.46 0.10 97 1009.7
20260509111527 11 223 3.2 6.4 0.00 0.46 0.10 97 1009.6
20260509110530 10 229 3.2 6.4 0.00 0.46 0.10 97 1009.5
20260509105530 10 188 3.2 6.4 0.00 0.46 0.10 97 1009.7
20260509104552 10 182 3.2 4.8 0.00 0.46 0.10 97 1009.7
20260509103516 10 195 3.2 6.4 0.00 0.46 0.10 97 1009.7
20260509102517 10 172 3.2 6.4 0.00 0.46 0.10 97 1009.6
20260509101539 10 156 3.2 6.4 0.00 0.46 0.10 97 1009.6
20260509100539 10 165 4.8 8.0 0.00 0.46 0.10 97 1009.7
20260509095515 10 156 3.2 4.8 0.00 0.46 0.10 97 1009.7
20260509094523 10 218 4.8 9.7 0.00 0.46 0.10 97 1009.7
20260509093524 10 192 3.2 4.8 0.00 0.46 0.10 97 1009.7
20260509092526 10 132 3.2 6.4 0.00 0.46 0.10 97 1009.9
20260509091527 10 212 4.8 8.0 0.00 0.46 0.10 97 1010.0
20260509090528 10 192 4.8 8.0 0.00 0.46 0.10 97 1010.1
20260509085529 10 235 3.2 4.8 0.00 0.46 0.10 97 1010.2
20260509084531 10 226 4.8 8.0 0.00 0.46 0.10 97 1010.2
20260509083532 10 203 4.8 6.4 0.00 0.46 0.10 96 1010.2
20260509082515 10 136 3.2 6.4 0.00 0.46 0.10 96 1010.2